Flag for U.S.A. Weather past 2 weeks in Madison, Wisconsin, U.S.A.

Now
51 °F

Overcast.


Feels Like: 46 °F
Forecast: 40 / 57 °F
Wind: 17 mph from Southeast

Location: Dane County Regional-Truax Field


UV Index: 0 (Low)

Visibility: 10 mi


Pressure: 29.85 "Hg

Humidity: 63%

Dew point: 39 °F

Location of MadisonLocation

Historic Weather in Madison

°F

Madison temperature yesterday

Maximum temperature yesterday: 56 °F (at 2:53 PM)
Minimum temperature yesterday: 30 °F (at 5:53 AM)
Average temperature yesterday: 43 °F

Past Weeks' High & Low Weather Summary

 TemperatureHumidityPressure
High77 °F (Apr 20, 2:53 PM)97% (Apr 13, 7:53 AM)30.41 "Hg (Apr 13, 7:53 AM)
Low19 °F (Apr 15, 4:53 AM)15% (Apr 10, 3:53 PM)29.49 "Hg (Apr 14, 2:03 AM)
Average47 °F60%30.00 "Hg
* Reported Apr 9 10:53 AM — Apr 24 10:53 AM, Madison, Weather by CustomWeather, © 2014

Note: Actual official high and low records may vary slightly from our data, if they occured in-between our weather recording intervals... More about our weather records

Advertising

Historic Weather Conditions — Data for Previous 24 hours

 ConditionsComfort  
Time TempWeatherWind HumidityBarometerVisibility
10:53 AM
Apr 24
46 °FOvercast.17 mph71%29.88 "Hg10 mi
9:53 AM44 °FOvercast.12 mph73%29.93 "Hg10 mi
8:53 AM43 °FLight rain. Overcast.13 mph76%29.95 "Hg10 mi
7:53 AM42 °FOvercast.14 mph76%29.96 "Hg10 mi
6:53 AM40 °FOvercast.13 mph83%29.98 "Hg10 mi
5:53 AM38 °FLight rain. Overcast.14 mph83%29.99 "Hg10 mi
4:53 AM36 °FLight rain. Mostly cloudy.10 mph82%30.03 "Hg10 mi
3:53 AM36 °FLight rain. Overcast.14 mph79%30.04 "Hg10 mi
2:53 AM36 °FMostly cloudy.N/A75%30.07 "Hg10 mi
1:53 AM38 °FLight rain. Mostly cloudy.14 mph70%30.11 "Hg10 mi
12:53 AM39 °FOvercast.N/A70%30.10 "Hg10 mi
11:53 PM
Apr 23
39 °FOvercast.7 mph73%30.08 "Hg10 mi
10:53 PM40 °FLight rain. Overcast.9 mph73%30.07 "Hg10 mi
9:53 PM41 °FLight rain. Overcast.9 mph70%30.06 "Hg7 mi
8:53 PM46 °FOvercast.15 mph58%30.04 "Hg10 mi
7:53 PM47 °FLight rain. Overcast.10 mph66%30.07 "Hg10 mi
6:53 PM50 °FLight rain. Mostly cloudy.9 mph50%30.10 "Hg7 mi
5:53 PM54 °FOvercast.13 mph33%30.10 "Hg10 mi
4:53 PM54 °FOvercast.12 mph33%30.10 "Hg10 mi
3:53 PM55 °FOvercast.12 mph31%30.12 "Hg10 mi
2:53 PM56 °FOvercast.13 mph32%30.12 "Hg10 mi
1:53 PM53 °FOvercast.8 mph32%30.14 "Hg10 mi
12:53 PM51 °FPartly sunny.5 mph39%30.16 "Hg10 mi
Weather by CustomWeather, © 2014

See weather overview